FW4370 Weather Reports


Display with metric or nautical units.
time (UTC)temp
F
wind
direction
speed
MPH
gust
MPH
rain 1hr
in
rain 24hr
in
rain mn
in
humidity
%
barometer
mb
20260831210049 74 73 6.0 11.0 0.00 0.00 0.00 52 1008.7
20260831204547 74 95 4.0 13.0 0.00 0.00 0.00 52 1008.8
20260831203057 77 107 4.0 9.0 0.00 0.00 0.00 53 1009.0
20260831201548 76 88 2.0 7.0 0.00 0.00 0.00 54 1009.1
20260831200046 74 124 1.0 6.0 0.00 0.00 0.00 54 1009.4
20260831194541 74 105 3.0 7.0 0.00 0.00 0.00 54 1009.7
20260831193035 76 150 4.0 8.0 0.00 0.00 0.00 56 1009.7
20260831191534 75 153 3.0 10.0 0.00 0.00 0.00 56 1009.9
20260831190131 74 115 5.0 10.0 0.00 0.00 0.00 57 1009.9
20260831184530 72 64 5.0 11.0 0.00 0.00 0.00 57 1010.2
20260831183023 71 108 4.0 12.0 0.00 0.00 0.00 57 1010.1
20260831181520 73 133 6.0 13.0 0.00 0.00 0.00 57 1009.9
20260831180015 73 93 8.0 14.0 0.00 0.00 0.00 58 1009.8
20260831174512 72 113 8.0 14.0 0.00 0.00 0.00 58 1009.8
20260831173011 71 112 5.0 11.0 0.00 0.00 0.00 58 1009.7
20260831171508 71 98 8.0 15.0 0.00 0.00 0.00 59 1009.7
20260831170006 73 175 8.0 14.0 0.00 0.00 0.00 61 1009.4
20260831164601 73 93 6.0 13.0 0.00 0.00 0.00 63 1009.3
20260831163057 71 123 8.0 13.0 0.00 0.00 0.00 66 1009.2
20260831161554 69 78 5.0 11.0 0.00 0.00 0.00 68 1009.3
20260831154555 64 62 4.0 8.0 0.00 0.00 0.00 70 1009.4
20260831153045 62 56 2.0 7.0 0.00 0.00 0.00 69 1009.1
20260831151543 62 75 1.0 4.0 0.00 0.00 0.00 69 1008.9
20260831150041 62 74 0.0 3.0 0.00 0.00 0.00 69 1009.0
20260831144549 62 74 0.0 1.0 0.00 0.00 0.00 69 1008.9
20260831143037 61 277 0.0 0.0 0.00 0.00 0.00 68 1008.9
20260831141533 60 276 0.0 0.0 0.00 0.00 0.00 68 1008.9
20260831140035 60 290 0.0 2.0 0.00 0.00 0.00 67 1008.8
20260831134530 59 304 0.0 0.0 0.00 0.00 0.00 66 1008.6
20260831133033 58 307 0.0 1.0 0.00 0.00 0.00 64 1008.3
20260831131526 57 269 0.0 1.0 0.00 0.00 0.00 63 1008.1
20260831130022 57 269 0.0 1.0 0.00 0.00 0.00 61 1008.0
20260831124520 57 325 0.0 0.0 0.00 0.00 0.00 60 1007.9
20260831123015 58 325 0.0 0.0 0.00 0.00 0.00 59 1007.7
20260831121509 59 325 0.0 1.0 0.00 0.00 0.00 57 1007.5
20260831120006 60 295 1.0 4.0 0.00 0.00 0.00 57 1007.1
20260831114501 61 346 0.0 2.0 0.00 0.00 0.00 56 1007.0
20260831113106 63 24 0.0 5.0 0.00 0.00 0.00 57 1007.0
20260831111611 62 44 0.0 3.0 0.00 0.00 0.00 57 1006.8
20260831110052 62 49 0.0 1.0 0.00 0.00 0.00 56 1007.0
20260831104549 61 74 1.0 3.0 0.00 0.00 0.00 55 1007.0
20260831103045 62 65 0.0 2.0 0.00 0.00 0.00 54 1007.2
20260831101550 63 66 0.0 2.0 0.00 0.00 0.00 54 1007.3
20260831100039 64 75 1.0 3.0 0.00 0.00 0.00 54 1007.5
20260831094537 64 93 2.0 7.0 0.00 0.00 0.00 53 1007.6
20260831093033 64 56 4.0 7.0 0.00 0.00 0.00 52 1007.5
20260831091549 64 112 1.0 3.0 0.00 0.00 0.00 51 1008.6
20260831090028 65 156 0.0 7.0 0.00 0.00 0.00 50 1009.0
20260831084518 67 198 2.0 7.0 0.00 0.00 0.00 51 1008.8
20260831083013 67 113 3.0 13.0 0.00 0.00 0.00 51 1008.6
20260831081522 68 156 5.0 16.0 0.00 0.00 0.00 52 1007.8
20260831080007 69 101 5.0 13.0 0.00 0.00 0.00 53 1007.6
20260831074601 70 104 5.0 9.0 0.00 0.00 0.00 54 1007.5
20260831073114 71 209 5.0 11.0 0.00 0.00 0.00 55 1007.5
20260831071555 71 206 0.0 11.0 0.00 0.00 0.00 54 1007.8
20260831070048 72 219 5.0 16.0 0.00 0.00 0.00 53 1007.6
20260831064547 72 222 4.0 10.0 0.00 0.00 0.00 52 1007.5
20260831063046 73 288 0.0 2.0 0.00 0.00 0.00 52 1006.7
20260831061542 72 127 0.0 0.0 0.00 0.00 0.00 53 1006.5
20260831060045 73 242 0.0 0.0 0.00 0.00 0.00 54 1006.4
20260831054547 73 240 0.0 2.0 0.00 0.00 0.00 55 1006.7
20260831053043 72 231 0.0 2.0 0.00 0.00 0.00 56 1007.0
20260831051538 72 215 0.0 0.0 0.00 0.00 0.00 56 1006.8
20260831050032 72 215 0.0 0.0 0.00 0.00 0.00 56 1007.0
20260831044527 72 224 0.0 2.0 0.00 0.00 0.00 55 1006.8
20260831043024 72 198 0.0 1.0 0.00 0.00 0.00 55 1006.9
20260831041521 73 84 0.0 1.0 0.00 0.00 0.00 54 1006.5
20260831040017 72 198 0.0 0.0 0.00 0.00 0.00 54 1006.7
20260831034513 73 105 0.0 2.0 0.00 0.00 0.00 53 1006.9
20260831033008 72 245 0.0 3.0 0.00 0.00 0.00 52 1006.2
20260831031505 72 269 0.0 0.0 0.00 0.00 0.00 51 1006.0
20260831030004 73 269 0.0 1.0 0.00 0.00 0.00 50 1005.8
20260831024503 74 268 0.0 3.0 0.00 0.00 0.00 49 1005.6
20260831023100 74 304 2.0 5.0 0.00 0.00 0.00 49 1005.7
20260831021601 75 291 1.0 4.0 0.00 0.00 0.00 48 1005.9
20260831014556 77 272 1.0 5.0 0.00 0.00 0.00 46 1005.8
20260831013056 77 290 2.0 6.0 0.00 0.00 0.00 46 1005.8
20260831011551 77 263 2.0 6.0 0.00 0.00 0.00 45 1005.9
20260831010104 77 276 2.0 6.0 0.00 0.00 0.00 44 1006.1
20260831004552 78 267 1.0 6.0 0.00 0.00 0.00 43 1005.9
20260831003059 78 224 2.0 6.0 0.00 0.00 0.00 42 1005.8
20260831001543 79 248 2.0 5.0 0.00 0.00 0.00 41 1005.9
20260831000042 79 214 1.0 9.0 0.00 0.00 0.00 40 1005.4
20260830234537 80 239 4.0 10.0 0.00 0.00 0.00 39 1005.7
20260830233036 80 188 7.0 12.0 0.00 0.00 0.00 39 1005.8
20260830231532 81 219 6.0 12.0 0.00 0.00 0.00 39 1006.0
20260830230032 81 233 5.0 11.0 0.00 0.00 0.00 38 1006.1
20260830224528 82 251 4.0 10.0 0.00 0.01 0.00 38 1006.1
20260830223125 84 244 6.0 13.0 0.00 0.01 0.00 38 1006.2
20260830221521 84 240 8.0 16.0 0.00 0.01 0.00 38 1006.3
20260830220021 84 238 7.0 14.0 0.00 0.01 0.00 38 1006.5
20260830214516 84 255 8.0 16.0 0.00 0.01 0.00 39 1006.7
20260830213012 84 220 8.0 14.0 0.00 0.01 0.00 39 1007.0
20260830211510 84 251 4.0 15.0 0.00 0.01 0.00 39 1007.4